Location: Turtle Rock Observatory
(36.6913°N, 81.9708°W)
Time: 02:57:46
(UTC-05:00)

Lacrosse 5 rocket - Visible Passes

Search period start: 18 January 2017 00:00
Search period end: 28 January 2017 00:00
Orbit: 463 x 641 km, 57.0° (Epoch: 17 January)

Date Brightness Start Highest point End Pass type
(mag) Time Alt. Az. Time Alt. Az. Time Alt. Az.
18 Jan 2.8 18:40:36 10° N 18:43:15 18° NE 18:43:38 17° NE visible
18 Jan 4.1 20:18:52 10° NW 20:19:24 14° NW 20:19:24 14° NW visible
19 Jan 2.4 18:35:48 10° NNW 18:38:53 23° NE 18:40:18 19° ENE visible
19 Jan 3.6 20:14:31 10° WNW 20:16:06 21° WNW 20:16:06 21° WNW visible
20 Jan 2.0 18:31:04 10° NNW 18:34:29 30° NE 18:37:21 14° E visible
20 Jan 3.4 20:10:19 10° WNW 20:13:10 25° WSW 20:13:10 25° WSW visible
21 Jan 1.6 18:26:25 10° NNW 18:30:03 41° NE 18:33:52 10° ESE visible
21 Jan 3.9 20:06:18 10° WNW 20:09:01 18° WSW 20:10:50 14° SSW visible
22 Jan 1.2 18:21:49 10° NNW 18:25:34 59° NE 18:29:33 10° SE visible
22 Jan 4.4 20:02:44 10° W 20:04:25 12° WSW 20:06:07 10° SW visible
23 Jan 1.1 18:17:17 10° NW 18:21:06 87° NE 18:25:07 10° SE visible
24 Jan 1.7 18:12:48 10° NW 18:16:35 64° SW 18:20:33 10° SSE visible
25 Jan 2.7 18:08:25 10° NW 18:12:03 43° SW 18:15:51 10° SSE visible
